Zurück zum Katalog

STARLINK-3770

AktivKommunikationVLEO
NORAD 52554·PAYLOAD·🇺🇸 United States

Gestartet May 13, 2022 von Vandenberg Space Force Base

Loading…

Nächste Überflüge (nächste 24 Stunden)

TLE

AktuellSource: CelesTrak SupGP

Epoche: Sep 14, 2026, 22:01 UTC

1 52554C 22051X   26257.91784722 -.00031376  00000+0 -10090-2 0  2573
2 52554  53.1615 359.7606 0000973  80.3444 101.4967 15.31715880    10

Verfolge STARLINK-3770 in Echtzeit mit AllMySat

Download on the App Store